Weather History for Crestview, FL

Change the Weather History Date:

Sunday, March 17, 2013

  Actual Average Record
Temperature  
Mean Temperature 61 °F -  
Max Temperature 72 °F - - ()
Min Temperature 51 °F - - ()
Degree Days  
Heating Degree Days 4    
Growing Degree Days 11 (Base 50)    
Moisture  
Dew Point 57 °F    
Average Humidity 95    
Maximum Humidity 100    
Minimum Humidity 71    
Precipitation  
Precipitation 0.00 in - - ()
Sea Level Pressure  
Sea Level Pressure 30.00 in    
Wind  
Wind Speed 3 mph (SSE)    
Max Wind Speed 15 mph    
Max Gust Speed -    
Visibility 4 miles    
Events Fog    
T = Trace of Precipitation, MM = Missing Value Source: NWS Daily Summary

Daily Weather History Graph

Daily Weather History Graph

Search for Another Location

Airport:

Trip Planner

Search our weather history database for the weather conditions in past years. The results will help you decide how hot, cold, wet, or windy it might be!

Date:

Astronomy

Mar. 17, 2013 Rise Set
Actual Time 6:53 AM CDT 6:55 PM CDT
Civil Twilight 6:29 AM CDT 7:19 PM CDT
Nautical Twilight 6:01 AM CDT 7:47 PM CDT
Astronomical Twilight 5:33 AM CDT 8:16 PM CDT
Moon 10:27 AM CDT (3/17) No Moon Set
Length of Visible Light 12h 50m
Length of Day
12h 02m
Waxing Crescent, 31% of the Moon is Illuminated
Mar 17
Waxing Crescent
Mar 19
First Quarter
Mar 27
Full
Apr 2
Last Quarter
Apr 10
New

Hourly Weather History & Observations

Time (CDT) Temp. Dew Point Humidity Pressure Visibility Wind Dir Wind Speed Gust Speed Precip Events Conditions
12:08 AM 57.2 °F 57.2 °F 100% 30.03 in 1.2 mi South 2.3 mph - N/A   Mostly Cloudy
12:13 AM 57.2 °F 57.2 °F 100% 30.04 in 1.0 mi South 2.3 mph - N/A   Scattered Clouds
12:18 AM 57.2 °F 57.2 °F 100% 30.03 in 0.8 mi South 2.3 mph - N/A   Partly Cloudy
12:23 AM 57.2 °F 57.2 °F 100% 30.03 in 0.5 mi South 3.5 mph - N/A Fog Fog
12:28 AM 57.2 °F 57.2 °F 100% 30.03 in 0.2 mi South 2.3 mph - N/A Fog Fog
12:38 AM 57.2 °F 57.2 °F 100% 30.03 in 0.5 mi SSE 3.5 mph - N/A Fog Fog
12:58 AM 55.2 °F 54.9 °F 99% 30.04 in 0.5 mi SSE 2.3 mph - N/A Fog Fog
1:03 AM 55.4 °F 55.4 °F 100% 30.03 in 0.2 mi SSE 3.5 mph - N/A Fog Fog
1:23 AM 55.4 °F 53.6 °F 94% 30.02 in 0.5 mi SSE 1.2 mph - N/A Fog Fog
1:38 AM 53.6 °F 53.6 °F 100% 30.02 in 0.2 mi Calm Calm - N/A Fog Fog
1:58 AM 53.1 °F 52.7 °F 99% 30.03 in 0.2 mi Calm Calm - N/A Fog Fog
2:08 AM 51.8 °F 50.0 °F 94% 30.02 in 0.5 mi Calm Calm - N/A Fog Fog
2:13 AM 51.8 °F 51.8 °F 100% 30.01 in 0.2 mi Calm Calm - N/A Fog Fog
2:37 AM 51.8 °F 51.8 °F 100% 30.00 in 0.2 mi Calm Calm - N/A Fog Fog
2:58 AM 51.1 °F 50.7 °F 99% 30.01 in 0.2 mi Calm Calm - N/A Fog Fog
3:58 AM 55.4 °F 55.2 °F 99% 30.00 in 0.2 mi South 2.3 mph - N/A Fog Fog
4:23 AM 55.4 °F 55.4 °F 100% 30.00 in 0.5 mi South 2.3 mph - N/A Fog Fog
4:33 AM 55.4 °F 55.4 °F 100% 30.00 in 0.2 mi Calm Calm - N/A Fog Fog
4:58 AM 55.0 °F 54.9 °F 99% 30.00 in 0.2 mi Calm Calm - N/A Fog Fog
5:28 AM 51.8 °F 51.8 °F 100% 30.00 in 0.5 mi Calm Calm - N/A Fog Fog
5:29 AM 51.8 °F 51.8 °F 100% 30.00 in 0.5 mi Calm Calm - N/A Fog Fog
5:34 AM 51.8 °F 51.8 °F 100% 30.00 in 0.8 mi Calm Calm - N/A   Mist
5:44 AM 51.8 °F 51.8 °F 100% 30.00 in 0.5 mi Calm Calm - N/A Fog Fog
5:49 AM 51.8 °F 51.8 °F 100% 30.00 in 0.2 mi Calm Calm - N/A Fog Fog
5:58 AM 51.3 °F 50.9 °F 99% 30.02 in 0.2 mi SSE 2.3 mph - N/A Fog Fog
6:08 AM 51.8 °F 51.8 °F 100% 30.01 in 0.2 mi Calm Calm - N/A Fog Fog
6:41 AM 53.6 °F 51.8 °F 94% 30.02 in 0.2 mi NW 4.6 mph - N/A Fog Fog
6:58 AM 52.0 °F 51.8 °F 99% 30.03 in 0.2 mi NNW 1.2 mph - N/A Fog Fog
7:03 AM 51.8 °F 51.8 °F 100% 30.02 in 0.2 mi Calm Calm - N/A Fog Fog
7:43 AM 53.6 °F 53.6 °F 100% 30.02 in 0.2 mi Calm Calm - N/A Fog Fog
7:58 AM 54.5 °F 54.5 °F 100% 30.03 in 0.2 mi North 1.2 mph - N/A Fog Fog
8:08 AM 55.4 °F 55.4 °F 100% 30.02 in 0.5 mi NE 2.3 mph - N/A Fog Fog
8:13 AM 55.4 °F 55.4 °F 100% 30.02 in 0.8 mi North 2.3 mph - N/A   Partly Cloudy
8:14 AM 55.4 °F 55.4 °F 100% 30.02 in 0.8 mi North 2.3 mph - N/A   Partly Cloudy
8:19 AM 55.4 °F 55.4 °F 100% 30.02 in 1.0 mi North 2.3 mph - N/A   Scattered Clouds
8:24 AM 55.4 °F 55.4 °F 100% 30.03 in 1.2 mi Calm Calm - N/A   Scattered Clouds
8:29 AM 57.2 °F 57.2 °F 100% 30.03 in 1.8 mi Calm Calm - N/A   Partly Cloudy
8:34 AM 57.2 °F 57.2 °F 100% 30.03 in 3.0 mi Calm Calm - N/A   Scattered Clouds
8:58 AM 58.6 °F 58.6 °F 100% 30.05 in 10.0 mi SSE 3.5 mph - N/A   Scattered Clouds
9:58 AM 62.1 °F 62.1 °F 100% 30.06 in 10.0 mi SSE 4.6 mph - N/A   Partly Cloudy
10:58 AM 64.6 °F 64.6 °F 100% 30.05 in 10.0 mi Variable 5.8 mph - N/A   Mostly Cloudy
11:58 AM 65.7 °F 63.3 °F 92% 30.04 in 10.0 mi SE 5.8 mph - N/A   Partly Cloudy
12:58 PM 67.3 °F 62.2 °F 84% 30.02 in 10.0 mi SSE 9.2 mph - N/A   Clear
1:58 PM 69.8 °F 62.1 °F 76% 30.00 in 10.0 mi SSE 12.7 mph - N/A   Scattered Clouds
2:58 PM 71.8 °F 61.9 °F 71% 29.97 in 10.0 mi SSE 15.0 mph - N/A   Scattered Clouds
3:53 PM 68.0 °F 62.6 °F 83% 29.95 in 10.0 mi South 9.2 mph - N/A   Light Drizzle
3:58 PM 68.0 °F 62.6 °F 83% 29.96 in 10.0 mi South 10.4 mph - N/A   Light Drizzle
4:14 PM 68.0 °F 62.6 °F 83% 29.95 in 10.0 mi South 12.7 mph - N/A   Mostly Cloudy
4:53 PM 68.0 °F 62.6 °F 83% 29.95 in 10.0 mi SSE 10.4 mph - N/A   Mostly Cloudy
5:14 PM 68.0 °F 62.6 °F 83% 29.95 in 10.0 mi South 15.0 mph - N/A   Mostly Cloudy
5:19 PM 66.2 °F 62.6 °F 88% 29.95 in 10.0 mi SSE 11.5 mph - N/A   Scattered Clouds
5:58 PM 66.6 °F 61.3 °F 83% 29.97 in 10.0 mi South 9.2 mph - N/A   Scattered Clouds
6:08 PM 66.2 °F 60.8 °F 83% 29.96 in 10.0 mi SSE 12.7 mph - N/A   Mostly Cloudy
6:43 PM 64.4 °F 60.8 °F 88% 29.96 in 10.0 mi SSE 9.2 mph - N/A   Mostly Cloudy
6:58 PM 64.4 °F 60.1 °F 86% 29.97 in 10.0 mi South 9.2 mph - N/A   Mostly Cloudy
7:58 PM 62.8 °F 59.9 °F 90% 29.97 in 10.0 mi SSE 6.9 mph - N/A   Scattered Clouds
8:58 PM 61.3 °F 60.3 °F 96% 29.98 in 10.0 mi SSE 4.6 mph - N/A   Mostly Cloudy
9:58 PM 61.3 °F 59.9 °F 95% 29.98 in 10.0 mi SSE 11.5 mph - N/A   Clear
10:45 PM 60.8 °F 60.8 °F 100% 29.97 in 10.0 mi SSE 8.1 mph - N/A   Partly Cloudy
10:58 PM 60.8 °F 60.4 °F 99% 29.98 in 10.0 mi SSE 9.2 mph - N/A   Scattered Clouds
10:59 PM 60.8 °F 60.8 °F 100% 29.97 in 10.0 mi SSE 9.2 mph - N/A   Partly Cloudy
11:58 PM 61.3 °F 61.2 °F 99% 29.97 in 10.0 mi SSE 6.9 mph - N/A   Scattered Clouds